Wind_Speed
55 55 56 60 61 54 48 47 48 48 49 49 43 37 34 33 33 33 33 35 35 34 33 31 31 31 31 30 30 33 35 35 36 39 39 37 35 34 32 31 30 25 22 22 22 21 20 19 19 21 23 24 23 21 21 20 17 16 16 16 16 15 14
59 59 58 61 62 55 47 45 46 46 48 48 41 36 34 33 33 34 31 32 36 36 35 33 31 32 32 31 31 33 35 34 34 36 37 36 34 32 30 31 31 26 23 24 24 22 23 23 22 22 22 22 23 23 22 21 19 17 17 16 16 16 16
61 60 60 62 62 54 47 45 45 46 47 45 40 36 32 31 32 35 35 32 33 34 34 34 32 32 33 32 33 35 35 34 34 34 34 34 31 30 30 31 31 27 24 25 25 26 28 29 28 25 23 22 22 23 22 21 20 19 18 17 16 16 16
61 59 60 63 61 55 47 46 46 46 46 44 41 36 31 30 31 33 33 32 31 32 34 36 34 33 34 35 35 36 37 37 35 34 34 33 31 30 32 33 31 27 25 27 27 28 29 29 29 27 25 22 23 23 21 20 20 19 18 17 16 16 16
62 61 63 63 61 55 50 48 45 45 45 43 39 34 33 34 33 32 31 33 35 34 34 35 35 35 36 38 37 37 38 38 37 36 35 34 33 33 33 33 31 27 27 29 29 27 27 27 27 26 24 22 23 23 22 20 19 19 18 17 16 16 16
63 64 65 64 61 56 53 51 48 45 43 39 35 32 33 32 29 28 32 40 45 40 34 35 35 34 36 38 39 39 38 38 38 38 37 36 34 33 33 33 31 29 30 32 31 29 28 27 26 24 23 21 22 24 23 21 19 19 19 19 17 16 16
65 67 67 65 63 60 57 54 51 47 42 40 39 36 33 28 24 30 36 41 49 48 41 38 36 35 35 37 40 42 40 37 38 39 39 37 35 34 33 33 32 31 32 33 32 30 30 29 27 24 21 21 23 25 24 22 20 19 20 20 18 16 16
67 69 69 67 66 66 62 58 56 54 49 46 44 40 39 36 34 42 49 47 48 53 51 48 44 40 37 37 40 43 44 40 38 39 39 38 37 35 34 33 33 33 34 34 33 30 30 30 27 25 22 21 24 26 25 24 21 19 20 19 18 16 16
69 71 70 70 72 71 67 63 62 63 61 56 53 52 54 56 54 56 59 55 49 50 53 55 53 48 41 39 41 43 45 45 41 39 37 36 36 37 35 34 35 35 35 34 33 31 30 29 28 26 25 24 25 27 27 24 21 20 20 20 20 18 17
70 73 72 74 77 77 73 69 69 70 68 66 66 65 67 72 70 66 64 60 55 50 48 50 54 53 46 41 43 45 47 48 46 42 39 35 35 36 37 36 36 37 37 34 32 32 31 30 28 27 27 27 28 29 28 24 21 20 21 21 22 21 19
72 74 76 79 81 81 79 76 74 73 71 71 71 69 71 77 77 73 69 66 64 60 54 48 50 56 54 46 43 46 49 51 50 47 42 39 37 36 37 38 38 39 39 36 34 34 33 31 29 28 28 29 30 30 29 26 22 21 21 21 21 22 21
78 77 79 83 85 85 84 82 80 78 76 76 76 72 73 76 75 74 74 74 73 72 68 58 49 51 54 51 47 48 51 53 54 52 47 42 40 37 37 38 39 40 40 39 37 37 36 34 31 29 28 30 32 31 30 28 23 21 21 21 21 21 21
85 81 81 85 87 87 87 88 86 85 83 82 80 77 75 75 73 72 74 77 78 78 77 73 63 55 54 53 52 52 53 55 56 55 52 47 43 39 36 36 37 40 41 39 38 38 38 36 33 30 29 30 33 32 31 29 25 22 22 22 22 22 22
90 87 85 87 90 90 90 91 91 91 89 87 84 80 76 75 74 71 72 76 77 76 76 77 76 72 65 59 57 55 54 55 57 58 56 53 47 43 39 36 35 38 39 39 38 38 38 36 34 31 29 30 32 33 32 30 27 24 23 22 22 21 22
95 93 90 90 93 93 93 93 94 96 94 91 87 82 78 77 75 72 71 74 75 75 74 74 75 74 70 63 59 57 55 54 56 59 59 56 52 47 43 39 36 37 38 38 39 39 38 36 34 32 31 31 32 33 33 33 30 26 25 24 23 22 22
99 98 96 94 95 97 98 96 96 98 98 96 91 86 82 80 77 75 72 72 73 74 74 74 72 68 65 61 58 57 54 53 55 57 58 59 56 51 47 43 39 37 38 39 40 41 40 38 35 33 33 32 31 33 35 35 33 30 28 27 25 24 23
104 102 101 99 98 99 102 102 101 100 100 99 96 92 88 86 83 82 79 74 72 74 74 72 69 65 60 56 56 56 54 53 54 55 56 57 57 54 50 47 44 40 38 38 40 42 42 40 38 36 34 33 32 33 35 36 34 32 31 30 28 26 24
107 106 105 105 103 102 103 105 105 104 103 102 101 98 94 91 88 87 85 79 74 74 75 72 67 64 59 54 55 57 54 53 53 53 53 53 54 54 51 49 48 44 40 39 40 42 43 42 41 39 36 35 34 33 34 35 35 34 33 33 31 28 26
105 108 108 108 107 106 106 106 107 107 105 104 104 103 100 96 92 89 88 86 81 78 78 75 69 65 61 56 56 56 55 54 52 51 51 50 51 52 52 50 49 47 45 42 40 40 43 44 44 42 39 37 36 35 34 34 35 33 34 35 32 29 28
102 105 108 109 110 109 109 109 109 110 109 107 106 105 104 101 98 94 91 90 89 86 83 80 74 69 65 61 59 58 57 56 55 54 53 52 52 53 52 51 50 49 48 48 44 41 41 44 45 44 42 40 38 36 35 35 35 33 34 36 34 31 29
99 102 105 108 110 111 111 112 112 113 113 112 110 109 108 106 104 101 96 94 93 93 91 86 81 77 73 70 67 65 63 62 61 60 57 55 54 53 54 53 54 53 51 51 51 45 41 43 45 45 45 44 42 39 38 37 37 35 34 35 36 34 31
98 100 103 106 108 111 112 113 114 115 115 116 115 114 113 112 109 106 102 98 97 98 97 93 89 85 82 79 76 73 70 69 67 65 62 60 58 56 55 56 56 57 55 54 54 51 45 42 43 45 46 47 46 44 42 41 39 37 36 36 37 36 33
97 99 102 104 107 109 111 113 114 115 115 116 117 117 117 117 116 113 108 103 101 101 100 99 97 94 90 86 83 80 76 73 73 70 67 65 63 59 58 59 59 59 58 57 56 54 51 45 42 44 46 47 47 46 44 43 41 39 38 38 38 37 35
90 96 100 103 106 108 110 112 113 114 115 116 117 117 118 118 118 117 115 111 109 107 105 104 104 103 99 94 89 85 82 77 75 74 72 69 66 62 60 61 62 61 61 61 59 56 55 51 47 45 44 44 46 46 45 43 41 40 39 39 40 39 37
79 86 93 99 103 106 109 110 112 113 114 115 116 117 117 118 118 118 117 116 115 114 113 112 110 108 104 99 94 91 89 85 81 79 77 74 71 68 64 64 65 65 63 64 64 60 56 52 50 48 47 45 45 45 43 42 40 39 40 42 42 42 40
70 75 81 88 95 101 105 108 111 112 113 114 115 116 116 116 116 117 116 116 115 115 115 115 113 110 106 103 99 95 95 93 88 86 83 79 76 73 70 68 69 69 67 67 68 64 58 54 53 52 53 52 50 46 44 41 38 38 41 43 44 44 43
69 72 75 79 83 88 93 98 102 106 110 112 113 113 114 114 114 114 113 114 114 114 114 114 113 111 108 104 99 95 96 98 95 90 87 85 82 78 75 72 70 70 70 70 71 68 62 59 56 55 57 57 55 52 49 44 39 39 42 44 45 46 46
72 74 75 77 78 79 81 84 86 90 96 101 102 104 106 109 112 113 113 112 113 113 113 113 112 110 109 106 101 96 96 98 98 95 90 87 85 82 79 76 72 70 71 72 74 72 67 62 59 58 59 59 57 55 52 47 43 43 45 45 46 47 48
71 72 74 76 77 78 78 79 79 81 84 88 90 91 94 98 103 108 110 111 112 112 113 112 111 110 110 109 108 105 99 94 95 97 94 90 88 86 83 81 77 73 71 73 77 76 70 65 62 60 60 59 59 58 54 51 49 49 49 48 47 46 46
65 66 68 71 73 75 76 76 76 78 81 84 85 85 86 88 92 95 97 100 103 105 108 110 111 111 112 112 112 109 104 96 93 94 94 92 91 89 86 84 83 79 74 75 79 80 75 68 64 62 61 61 61 59 55 53 52 53 52 50 48 46 45
53 54 56 58 61 63 66 67 68 70 74 80 83 85 87 88 87 86 86 88 91 94 98 103 106 108 109 110 110 110 107 102 97 95 94 92 93 92 88 85 85 83 78 77 80 82 80 73 66 63 63 65 65 62 58 57 56 55 55 52 49 47 45
39 41 44 45 46 49 53 57 59 62 66 70 74 79 83 85 84 84 87 88 88 89 90 91 92 93 92 94 98 102 104 103 101 99 97 94 94 94 92 89 88 86 82 80 82 84 84 78 70 65 65 67 68 64 62 62 61 58 57 54 51 49 46
32 35 38 38 38 40 44 48 51 55 60 62 64 67 71 74 76 80 86 89 87 86 86 85 82 77 74 75 79 82 86 93 98 100 100 98 98 99 97 94 93 91 86 83 83 85 86 83 76 70 67 68 68 66 65 66 64 62 59 54 52 52 48
29 32 36 38 37 35 35 39 43 48 53 55 57 61 63 66 69 73 77 81 79 77 80 83 81 74 69 69 71 72 73 77 84 91 96 96 97 101 103 102 99 95 90 87 85 86 88 86 81 75 70 68 69 69 69 67 65 64 62 57 55 53 48
28 30 33 37 37 33 31 32 36 42 47 49 52 56 59 61 66 69 69 72 75 75 76 76 72 68 67 67 69 72 73 72 74 82 91 93 93 96 103 107 106 99 92 89 87 86 88 88 85 79 72 69 71 73 71 69 67 66 64 61 57 54 48
28 29 30 32 32 32 33 33 34 37 43 46 48 51 53 57 63 66 66 67 71 72 72 69 64 63 66 66 65 67 71 73 75 79 86 92 94 95 99 107 110 105 96 90 88 86 87 88 86 82 77 73 74 75 74 73 70 68 65 62 58 55 50
26 27 28 29 29 30 32 34 34 36 40 43 45 47 50 53 57 60 62 65 66 64 64 66 65 64 67 68 67 68 70 75 79 78 77 80 86 90 93 100 107 105 99 93 89 87 87 87 85 83 82 79 76 76 76 74 73 72 69 65 60 57 53
Wind_Direction
207 213 216 215 217 219 220 225 228 228 227 225 227 230 230 228 224 229 240 248 256 262 261 255 251 249 246 247 248 246 247 247 245 246 247 249 252 254 255 255 256 258 259 258 258 260 262 269 280 282 278 280 289 298 299 295 294 294 290 282 276 274 271
206 211 212 212 215 216 217 223 226 225 223 221 223 224 223 223 218 214 221 240 252 258 258 255 252 250 250 251 251 249 250 249 245 246 247 248 250 252 255 256 256 256 255 254 255 258 261 264 275 281 279 282 287 292 295 295 294 295 291 283 276 275 273
207 210 210 210 212 212 214 219 221 219 218 219 220 218 220 222 219 209 206 221 245 255 253 251 252 253 253 254 253 252 252 250 245 244 246 246 245 249 254 255 256 253 251 251 251 254 260 263 268 272 274 279 282 285 292 293 293 295 292 285 278 274 273
208 210 210 210 209 208 210 212 214 214 214 214 212 211 215 222 226 224 218 222 245 260 253 249 253 256 257 257 254 251 251 250 247 243 244 244 239 243 249 250 252 251 248 248 246 248 253 255 260 265 265 270 277 281 288 288 290 293 292 287 280 273 271
208 210 210 209 207 206 205 203 205 207 206 205 205 207 213 218 225 235 241 242 251 263 258 250 254 257 258 258 255 251 248 248 247 243 242 242 240 241 245 246 246 243 243 245 243 245 248 249 258 262 259 265 275 278 281 284 286 288 289 290 284 276 271
207 208 208 205 203 202 200 198 197 198 200 201 203 212 219 219 217 226 243 249 250 254 256 254 255 257 258 257 254 251 247 244 244 243 241 242 242 243 245 243 239 235 237 242 242 245 249 252 260 260 256 264 274 274 276 279 281 283 285 289 288 281 275
207 207 206 204 201 198 195 196 195 195 199 203 205 214 224 224 217 218 229 240 244 246 251 254 256 256 256 254 251 250 249 245 243 243 242 242 242 243 243 240 235 232 233 239 242 245 249 253 259 258 252 263 272 270 272 275 277 279 280 286 290 287 281
207 207 205 203 199 196 195 196 194 193 193 195 200 208 215 217 219 223 224 227 234 243 249 252 254 254 253 252 250 249 249 247 245 244 243 243 242 242 241 237 233 231 232 237 241 244 247 250 256 256 247 255 267 267 268 271 274 274 275 281 288 290 287
209 207 205 203 198 196 197 198 195 194 192 192 199 206 209 210 215 221 223 225 230 240 247 249 250 250 250 252 250 245 245 246 247 246 244 243 242 240 239 236 233 231 231 235 238 242 246 247 253 256 246 245 257 261 263 267 270 270 271 275 282 286 288
210 207 204 203 200 197 199 200 199 199 197 197 203 207 206 210 215 218 221 227 232 237 244 246 244 243 246 251 248 241 238 243 247 248 245 243 241 238 238 236 234 233 233 235 238 240 243 244 249 255 249 242 249 257 260 263 266 267 267 271 278 282 283
212 208 204 203 202 200 201 201 202 202 201 202 207 209 207 209 215 219 222 227 232 235 241 244 242 240 242 247 248 240 235 238 244 248 246 242 240 238 237 237 236 235 236 237 239 239 241 243 247 252 251 244 245 254 257 259 262 263 264 268 274 278 281
213 210 206 204 203 203 203 203 203 204 205 207 211 214 213 211 215 221 225 229 232 235 238 241 242 241 240 242 247 243 235 234 240 246 247 244 242 240 239 238 237 237 238 239 241 241 242 244 246 249 250 245 244 250 255 258 259 258 260 264 269 276 282
214 212 209 207 205 205 205 205 205 206 208 212 215 218 219 217 219 224 227 230 233 236 238 240 242 244 243 246 248 243 235 232 235 241 246 246 246 245 243 241 239 238 239 240 241 242 243 244 244 246 248 247 245 247 253 257 258 255 256 259 264 273 280
216 215 213 211 209 208 208 208 208 209 211 215 218 222 224 222 222 225 228 230 233 235 237 239 242 245 247 249 248 241 235 232 232 237 242 245 247 248 248 244 240 238 239 241 241 241 242 242 241 242 246 248 247 247 250 255 256 254 253 254 259 268 275
218 217 216 215 213 212 212 211 212 212 213 216 220 223 225 224 223 225 227 230 232 234 236 239 242 244 246 247 244 238 235 232 231 234 239 242 245 249 250 248 242 239 239 241 242 242 241 240 239 241 245 248 247 245 247 252 253 254 254 252 254 262 268
221 220 220 219 217 216 216 216 216 216 215 217 221 224 226 225 225 225 227 229 231 233 235 238 240 240 242 241 238 236 234 232 231 233 236 239 243 247 250 250 247 243 240 240 242 243 243 242 241 242 245 248 249 245 245 249 252 254 255 252 250 255 262
223 223 222 222 221 220 219 220 221 220 219 220 221 223 225 226 226 226 226 228 231 232 233 235 236 235 235 236 233 233 232 229 229 232 234 237 241 245 248 250 250 248 244 241 242 243 244 243 243 243 244 247 249 248 246 248 251 254 255 251 246 249 256
224 225 225 225 225 224 222 222 222 223 222 222 222 223 225 226 226 226 226 227 229 231 231 233 232 229 229 233 232 231 230 228 227 230 234 237 240 244 246 248 250 250 247 244 243 243 243 243 244 244 244 246 249 249 248 248 250 253 254 251 246 245 250
226 227 227 228 227 227 225 224 224 224 224 223 223 224 225 226 226 226 227 227 228 230 230 231 229 226 226 231 233 231 230 229 227 229 234 239 242 244 246 247 250 251 250 248 246 245 243 243 244 245 245 246 249 250 250 249 249 251 252 251 248 245 247
227 228 229 230 230 230 229 228 227 227 227 226 226 226 226 227 228 228 229 230 229 229 230 230 229 227 227 230 232 232 231 231 231 233 236 239 243 245 246 248 250 251 251 250 248 247 245 242 243 244 244 245 247 249 250 251 250 249 249 250 249 247 248
229 229 230 231 232 233 232 232 231 230 230 230 229 229 229 230 230 230 231 233 231 229 229 230 231 230 230 232 234 236 235 235 236 236 237 240 243 245 246 248 249 249 249 249 246 246 246 244 243 243 244 245 246 248 250 251 251 249 247 247 249 249 249
231 231 231 232 232 233 234 234 234 234 233 233 232 232 232 232 232 233 233 233 232 231 230 231 233 234 234 236 237 238 238 238 238 236 237 241 243 243 246 248 247 247 248 249 247 244 244 245 243 241 242 244 245 247 249 251 252 251 248 246 247 249 251
233 233 234 234 234 234 235 235 236 236 236 236 235 235 234 234 234 234 234 233 233 233 232 232 234 237 237 237 237 238 238 238 239 237 237 239 241 242 244 246 246 245 246 248 249 245 243 244 245 242 241 242 244 245 248 250 251 252 251 248 246 247 250
236 236 236 236 236 237 237 237 237 238 238 238 237 237 237 237 236 236 236 235 234 235 235 235 235 238 240 239 238 238 237 236 237 238 236 236 238 239 242 245 246 245 244 246 247 245 241 242 245 244 241 242 244 245 246 248 251 253 254 252 248 247 248
238 238 238 238 238 239 239 239 240 240 240 240 240 239 239 239 239 238 238 237 237 237 238 238 239 240 242 241 239 239 239 238 237 237 237 236 236 237 239 243 246 245 243 242 244 244 240 238 242 244 243 242 244 246 246 247 251 255 257 255 252 249 248
242 241 241 240 240 240 241 241 241 242 242 242 242 242 241 241 241 241 240 240 240 240 240 241 241 241 241 241 240 239 239 240 239 237 237 237 237 237 237 240 244 246 243 240 241 242 239 237 238 242 244 244 243 244 245 245 249 255 258 257 254 251 251
246 246 245 244 243 242 242 242 242 243 244 244 244 244 244 244 244 243 243 242 242 242 242 242 243 242 241 241 241 240 238 238 239 238 237 237 237 237 237 237 240 243 243 239 239 240 239 237 237 238 241 244 244 243 243 242 245 251 255 257 256 252 251
248 247 247 247 247 246 245 245 244 243 244 245 245 245 245 245 245 245 245 244 244 243 243 243 244 244 243 242 241 239 238 236 236 236 236 236 236 237 237 237 236 238 240 239 237 238 238 238 238 237 237 241 244 244 241 237 238 243 248 253 256 255 253
252 251 251 251 251 250 249 247 246 244 244 244 244 244 244 243 244 244 245 244 244 244 244 244 244 244 244 243 241 240 238 237 236 236 235 235 235 236 236 237 236 236 238 239 236 235 236 237 237 237 235 238 243 243 239 233 233 238 244 250 255 256 255
255 254 252 251 250 250 250 249 247 244 243 243 243 242 242 241 241 241 242 243 243 244 244 245 244 243 243 243 243 242 240 238 237 237 236 234 234 234 234 235 236 236 236 238 236 233 233 234 235 235 234 235 238 240 239 236 233 236 243 248 252 254 255
256 253 249 247 246 247 247 246 245 242 240 240 240 240 240 240 240 240 240 241 241 242 242 243 243 243 242 242 243 243 242 240 239 239 238 236 234 234 233 232 234 235 235 236 236 234 231 231 232 232 233 234 235 237 239 239 236 236 241 247 251 253 253
260 257 251 246 243 242 240 238 238 238 237 236 237 238 237 237 237 238 238 238 239 240 241 242 242 243 243 242 243 244 244 243 240 239 239 237 235 234 233 230 232 234 234 233 235 234 231 230 230 231 231 233 235 237 239 239 238 237 240 246 250 250 250
264 261 255 247 240 236 234 232 231 232 233 234 234 236 236 235 234 233 232 233 235 237 239 241 242 242 242 243 243 242 242 242 241 239 238 238 237 235 233 231 231 233 232 231 233 234 231 229 229 229 229 229 232 235 238 238 238 238 240 244 248 250 253
263 256 250 243 235 229 228 229 229 229 230 231 232 232 234 234 234 233 230 227 228 230 233 236 237 236 237 237 236 234 234 237 239 238 236 236 236 235 233 232 232 232 231 230 231 232 231 229 227 227 227 227 228 231 235 237 237 239 241 244 248 252 255
256 249 244 240 232 223 218 219 223 225 225 226 227 229 230 232 233 233 232 227 224 223 225 229 230 230 230 230 228 227 228 229 232 235 236 235 235 235 234 233 232 232 230 229 230 231 231 230 227 225 225 225 227 229 234 236 238 240 242 245 248 250 253
251 246 241 236 229 220 212 210 213 217 219 220 221 223 226 228 230 231 231 229 226 224 223 224 224 224 225 225 224 225 226 226 226 230 235 237 237 237 236 233 232 232 230 229 229 231 231 230 228 226 224 225 227 229 232 235 238 240 242 245 249 249 249
246 240 234 228 221 215 211 209 208 210 213 215 216 219 222 224 227 228 227 227 227 225 222 221 222 222 222 221 222 223 224 224 223 224 230 236 238 238 236 233 231 230 229 229 230 231 231 230 229 228 226 226 228 229 231 233 236 239 241 245 249 250 246
Height
10660 10666 10672 10678 10683 10687 10691 10693 10696 10700 10703 10706 10710 10714 10717 10719 10721 10722 10724 10726 10728 10731 10734 10737 10740 10742 10745 10748 10751 10754 10757 10761 10764 10766 10768 10770 10771 10774 10776 10777 10779 10780 10781 10782 10782 10782 10783 10784 10784 10785 10785 10785 10785 10785 10784 10784 10784 10784 10784 10784 10784 10785 10785
10657 10661 10667 10673 10678 10683 10687 10690 10693 10697 10700 10703 10707 10711 10713 10715 10715 10715 10716 10721 10723 10725 10729 10733 10737 10740 10742 10745 10748 10751 10754 10757 10760 10763 10765 10766 10768 10771 10773 10774 10776 10777 10779 10779 10780 10780 10781 10781 10782 10783 10783 10783 10783 10784 10783 10783 10783 10783 10783 10783 10783 10783 10784
10656 10660 10664 10669 10674 10679 10684 10687 10690 10693 10697 10701 10705 10708 10711 10712 10713 10711 10711 10715 10719 10722 10726 10730 10734 10737 10739 10742 10745 10747 10751 10754 10757 10760 10762 10763 10766 10768 10770 10771 10772 10774 10776 10777 10777 10778 10779 10779 10780 10781 10782 10782 10782 10782 10782 10782 10782 10781 10781 10781 10781 10781 10782
10653 10659 10663 10667 10671 10675 10679 10683 10687 10691 10694 10698 10701 10704 10707 10710 10713 10714 10714 10717 10719 10721 10725 10728 10731 10734 10736 10739 10742 10745 10747 10750 10754 10757 10759 10760 10763 10764 10766 10768 10769 10771 10772 10773 10774 10775 10776 10777 10778 10778 10779 10779 10780 10780 10781 10780 10780 10780 10780 10780 10780 10780 10780
10650 10655 10660 10664 10668 10671 10676 10680 10685 10689 10692 10696 10699 10701 10705 10708 10711 10714 10719 10723 10722 10722 10725 10727 10729 10732 10733 10736 10739 10742 10744 10747 10750 10753 10755 10757 10759 10761 10762 10764 10766 10768 10769 10770 10772 10773 10774 10775 10775 10776 10776 10777 10778 10778 10779 10779 10779 10779 10778 10778 10778 10778 10778
10646 10651 10655 10659 10663 10667 10672 10677 10681 10685 10690 10694 10697 10700 10703 10705 10706 10711 10720 10724 10723 10722 10723 10724 10726 10729 10731 10732 10734 10738 10741 10744 10746 10749 10752 10754 10756 10757 10759 10761 10763 10764 10765 10767 10769 10770 10771 10772 10772 10773 10774 10775 10775 10776 10776 10776 10777 10777 10777 10776 10776 10776 10776
10641 10646 10650 10654 10658 10662 10667 10672 10676 10680 10684 10689 10693 10696 10699 10701 10704 10708 10714 10719 10718 10717 10718 10720 10722 10724 10727 10729 10731 10733 10737 10741 10743 10746 10748 10751 10753 10754 10755 10757 10759 10760 10762 10763 10765 10767 10768 10769 10769 10770 10771 10772 10772 10773 10774 10774 10775 10775 10775 10775 10775 10775 10774
10637 10641 10645 10649 10653 10657 10661 10665 10669 10671 10674 10679 10685 10690 10693 10698 10703 10704 10704 10706 10708 10709 10712 10715 10717 10720 10724 10727 10729 10730 10733 10737 10740 10742 10745 10747 10749 10751 10752 10754 10755 10756 10758 10759 10761 10763 10764 10766 10766 10767 10768 10769 10769 10770 10771 10772 10772 10772 10773 10773 10773 10773 10773
10631 10636 10641 10644 10647 10651 10655 10659 10661 10661 10662 10666 10673 10681 10685 10689 10693 10694 10695 10697 10699 10702 10705 10709 10712 10716 10720 10723 10726 10728 10729 10733 10736 10739 10741 10744 10746 10747 10749 10750 10751 10753 10754 10756 10757 10759 10760 10762 10763 10764 10765 10766 10766 10767 10768 10769 10770 10770 10771 10771 10771 10771 10771
10626 10631 10635 10638 10641 10644 10648 10652 10655 10655 10656 10656 10660 10668 10673 10677 10680 10684 10688 10692 10694 10697 10700 10703 10707 10712 10717 10720 10723 10725 10727 10729 10732 10735 10738 10740 10742 10744 10746 10747 10748 10749 10751 10752 10754 10755 10756 10758 10760 10761 10762 10763 10763 10764 10765 10766 10767 10768 10768 10769 10769 10769 10769
10621 10625 10628 10631 10634 10637 10640 10644 10648 10651 10653 10653 10654 10658 10663 10668 10673 10678 10683 10686 10688 10692 10695 10698 10702 10707 10712 10716 10719 10722 10724 10726 10728 10730 10734 10736 10738 10740 10742 10744 10745 10746 10747 10749 10751 10752 10753 10754 10756 10758 10759 10760 10760 10761 10762 10764 10765 10766 10766 10766 10766 10766 10767
10615 10618 10621 10624 10628 10631 10634 10636 10640 10644 10647 10648 10650 10653 10657 10663 10668 10673 10677 10679 10682 10686 10690 10694 10698 10702 10707 10712 10715 10718 10720 10722 10724 10726 10729 10732 10734 10737 10739 10740 10741 10743 10744 10746 10747 10749 10750 10751 10753 10754 10756 10757 10757 10758 10759 10760 10762 10763 10763 10763 10764 10764 10764
10608 10612 10616 10618 10621 10625 10627 10629 10632 10635 10638 10641 10644 10647 10652 10658 10663 10667 10670 10673 10675 10680 10685 10689 10693 10698 10703 10707 10711 10714 10716 10718 10720 10721 10724 10727 10730 10733 10735 10737 10738 10739 10741 10743 10744 10745 10747 10748 10749 10751 10753 10754 10755 10756 10757 10757 10759 10760 10760 10761 10761 10762 10762
10600 10605 10609 10612 10615 10618 10620 10622 10625 10627 10630 10633 10637 10641 10647 10653 10658 10660 10663 10666 10670 10674 10679 10684 10688 10693 10699 10703 10706 10709 10711 10713 10716 10718 10719 10722 10726 10729 10731 10733 10735 10736 10738 10740 10741 10742 10743 10745 10746 10748 10749 10751 10751 10753 10754 10754 10755 10756 10757 10758 10758 10759 10759
10592 10597 10601 10605 10609 10611 10613 10616 10618 10620 10624 10626 10629 10634 10640 10646 10652 10655 10657 10661 10665 10669 10674 10679 10683 10689 10694 10698 10701 10703 10706 10709 10711 10713 10716 10718 10721 10724 10726 10728 10731 10733 10735 10737 10738 10739 10740 10742 10743 10745 10746 10747 10748 10749 10750 10751 10752 10753 10754 10755 10755 10756 10756
10585 10589 10593 10598 10602 10605 10607 10610 10612 10614 10618 10621 10623 10628 10632 10638 10645 10649 10653 10657 10660 10664 10669 10674 10679 10685 10689 10692 10695 10698 10701 10704 10706 10708 10711 10714 10716 10719 10721 10724 10726 10729 10731 10733 10734 10735 10737 10739 10740 10741 10743 10744 10745 10746 10747 10748 10749 10749 10751 10752 10752 10752 10753
10577 10581 10585 10589 10593 10597 10600 10603 10605 10608 10612 10615 10617 10621 10625 10630 10637 10641 10648 10654 10657 10659 10664 10669 10674 10680 10683 10686 10688 10691 10695 10699 10701 10703 10706 10709 10711 10714 10717 10719 10722 10725 10727 10729 10730 10731 10733 10735 10736 10738 10740 10741 10742 10743 10743 10744 10745 10746 10747 10748 10749 10749 10749
10569 10573 10577 10581 10585 10589 10593 10596 10598 10601 10605 10608 10611 10614 10618 10623 10629 10634 10641 10649 10653 10655 10658 10662 10668 10673 10677 10679 10682 10685 10689 10693 10696 10698 10700 10703 10706 10709 10713 10715 10717 10720 10724 10726 10727 10727 10729 10730 10732 10734 10736 10737 10738 10739 10740 10741 10741 10743 10743 10744 10745 10746 10746
10562 10565 10569 10573 10576 10580 10584 10588 10591 10594 10598 10601 10604 10607 10611 10616 10622 10628 10634 10640 10646 10648 10651 10654 10660 10665 10669 10672 10675 10679 10683 10687 10690 10692 10695 10698 10701 10704 10707 10710 10712 10715 10719 10722 10723 10724 10724 10726 10727 10730 10732 10734 10735 10735 10737 10737 10738 10739 10739 10740 10742 10743 10743
10554 10557 10561 10564 10567 10571 10575 10579 10583 10586 10589 10593 10597 10601 10605 10609 10614 10620 10625 10631 10636 10640 10643 10646 10651 10657 10661 10665 10669 10673 10678 10681 10684 10687 10689 10692 10695 10699 10702 10705 10707 10710 10714 10717 10719 10720 10721 10722 10723 10725 10727 10729 10730 10732 10733 10733 10734 10735 10736 10736 10737 10739 10740
10545 10548 10551 10554 10557 10560 10564 10568 10573 10577 10580 10585 10589 10593 10597 10601 10605 10610 10616 10621 10626 10631 10634 10638 10643 10649 10654 10657 10661 10666 10671 10676 10678 10681 10684 10687 10690 10693 10697 10699 10701 10704 10707 10710 10713 10715 10717 10718 10719 10721 10723 10724 10726 10728 10729 10729 10730 10731 10732 10733 10734 10735 10736
10537 10539 10541 10544 10547 10549 10552 10556 10560 10564 10569 10574 10579 10583 10587 10591 10595 10600 10606 10612 10616 10620 10625 10630 10635 10641 10646 10650 10654 10658 10664 10668 10672 10675 10678 10681 10685 10688 10690 10693 10695 10698 10701 10703 10706 10709 10711 10713 10715 10716 10717 10719 10721 10723 10724 10725 10726 10727 10728 10729 10730 10731 10732
10528 10530 10532 10534 10537 10539 10542 10544 10548 10552 10557 10562 10567 10571 10575 10580 10584 10589 10596 10602 10605 10609 10614 10620 10626 10632 10637 10642 10646 10650 10655 10660 10664 10668 10671 10675 10679 10682 10684 10685 10688 10691 10695 10698 10700 10703 10706 10708 10710 10710 10711 10713 10715 10717 10719 10720 10721 10722 10724 10725 10726 10727 10728
10518 10521 10523 10524 10527 10529 10531 10533 10537 10542 10546 10550 10554 10558 10562 10568 10573 10578 10585 10591 10594 10598 10604 10609 10616 10622 10628 10634 10639 10642 10645 10650 10655 10660 10663 10667 10672 10676 10677 10679 10681 10684 10688 10692 10694 10696 10699 10701 10704 10705 10706 10707 10708 10710 10712 10714 10717 10718 10719 10721 10722 10723 10725
10509 10511 10512 10513 10515 10517 10520 10523 10526 10530 10534 10538 10541 10545 10550 10556 10560 10565 10572 10579 10583 10588 10594 10598 10604 10612 10618 10625 10632 10634 10635 10640 10645 10649 10654 10659 10664 10667 10670 10672 10674 10676 10681 10685 10686 10689 10692 10695 10698 10700 10701 10701 10703 10704 10706 10709 10713 10715 10716 10717 10718 10719 10720
10500 10501 10501 10502 10504 10505 10508 10511 10514 10517 10520 10523 10526 10531 10537 10542 10547 10552 10559 10566 10571 10577 10582 10585 10591 10600 10606 10612 10620 10624 10625 10628 10633 10638 10643 10649 10654 10658 10662 10665 10667 10670 10674 10677 10678 10681 10685 10688 10691 10694 10695 10695 10697 10698 10699 10702 10708 10713 10715 10715 10714 10715 10716
10490 10490 10490 10490 10492 10493 10495 10497 10501 10505 10506 10507 10513 10519 10525 10530 10534 10540 10547 10553 10558 10563 10568 10571 10577 10584 10590 10598 10607 10613 10613 10614 10619 10626 10633 10639 10644 10649 10653 10657 10660 10663 10666 10668 10670 10673 10677 10680 10683 10686 10688 10689 10691 10692 10692 10695 10701 10708 10712 10712 10711 10710 10711
10478 10478 10478 10478 10479 10481 10482 10484 10488 10492 10493 10495 10500 10506 10511 10517 10522 10525 10531 10538 10544 10549 10554 10559 10564 10570 10577 10584 10592 10596 10597 10599 10605 10614 10622 10629 10634 10639 10643 10647 10652 10656 10658 10661 10663 10665 10669 10672 10675 10678 10680 10683 10685 10686 10686 10688 10692 10699 10704 10706 10706 10705 10706
10465 10465 10466 10466 10467 10468 10469 10471 10474 10477 10480 10483 10486 10490 10496 10502 10506 10509 10515 10522 10528 10535 10540 10545 10552 10559 10563 10566 10572 10577 10582 10589 10596 10603 10611 10618 10624 10629 10633 10637 10642 10647 10650 10653 10654 10656 10660 10663 10666 10669 10673 10676 10678 10680 10681 10681 10683 10689 10694 10698 10700 10701 10701
10453 10453 10453 10453 10453 10453 10455 10457 10459 10463 10467 10469 10471 10476 10481 10485 10488 10494 10501 10507 10514 10521 10527 10530 10536 10542 10546 10550 10555 10562 10571 10581 10589 10594 10600 10607 10612 10617 10622 10626 10631 10637 10642 10644 10645 10647 10650 10654 10658 10662 10665 10669 10671 10673 10677 10677 10678 10681 10686 10690 10693 10695 10697
10441 10441 10440 10440 10441 10442 10443 10444 10447 10450 10454 10456 10458 10462 10466 10470 10475 10484 10492 10497 10502 10508 10511 10513 10516 10521 10528 10537 10544 10550 10559 10570 10580 10586 10591 10596 10601 10606 10612 10616 10619 10625 10632 10634 10635 10637 10641 10645 10650 10654 10657 10660 10662 10667 10671 10672 10672 10675 10679 10683 10686 10689 10692
10431 10429 10429 10430 10431 10432 10433 10435 10437 10440 10442 10445 10448 10451 10454 10458 10463 10471 10478 10484 10490 10495 10497 10500 10505 10512 10521 10530 10537 10545 10552 10559 10568 10576 10581 10585 10590 10594 10600 10604 10608 10614 10620 10623 10624 10627 10632 10637 10642 10645 10648 10651 10656 10662 10665 10665 10667 10670 10672 10677 10681 10683 10686
10422 10421 10420 10421 10420 10421 10422 10425 10427 10430 10433 10437 10442 10445 10449 10452 10455 10457 10461 10468 10478 10485 10490 10494 10499 10507 10517 10525 10532 10542 10548 10551 10558 10564 10569 10574 10578 10583 10588 10592 10596 10602 10607 10610 10614 10617 10621 10627 10632 10635 10639 10645 10652 10657 10656 10656 10660 10664 10666 10671 10675 10677 10681
10416 10414 10414 10413 10412 10412 10414 10417 10420 10423 10426 10431 10436 10440 10444 10448 10451 10452 10453 10457 10465 10472 10476 10480 10486 10496 10506 10510 10517 10526 10535 10542 10550 10554 10557 10562 10567 10571 10576 10581 10585 10591 10595 10599 10603 10607 10611 10618 10623 10626 10632 10640 10645 10645 10645 10650 10655 10658 10660 10665 10669 10672 10677
10410 10409 10408 10408 10407 10406 10407 10410 10413 10416 10421 10426 10431 10434 10438 10443 10445 10448 10450 10452 10456 10459 10462 10467 10476 10487 10494 10497 10502 10509 10517 10529 10540 10543 10544 10549 10555 10560 10566 10570 10574 10581 10586 10589 10594 10599 10604 10609 10614 10620 10628 10633 10634 10635 10639 10645 10649 10651 10655 10660 10663 10667 10672
10405 10405 10404 10404 10403 10402 10402 10403 10405 10409 10414 10419 10424 10429 10433 10436 10438 10441 10445 10449 10452 10455 10458 10464 10471 10479 10485 10489 10495 10501 10507 10516 10525 10527 10528 10533 10540 10546 10551 10557 10563 10572 10580 10584 10587 10593 10598 10603 10609 10616 10622 10625 10625 10627 10632 10638 10642 10646 10651 10655 10657 10662 10666
10402 10401 10401 10401 10400 10400 10400 10400 10401 10404 10407 10411 10417 10422 10426 10429 10432 10436 10439 10444 10449 10453 10456 10461 10466 10472 10478 10483 10489 10495 10500 10506 10511 10513 10514 10518 10525 10532 10538 10546 10555 10566 10575 10581 10583 10588 10593 10598 10604 10611 10616 10618 10619 10621 10626 10632 10636 10639 10644 10648 10652 10656 10660